Location: Unspecified
(52.4292°N, 19.3359°E)
Time: 01:35:22
(UTC+02:00)

A-11 Canister half - Pass Details

Date: 26 May 2024
Orbit: 1514 x 1685 km, 47.2° (Epoch: 20 June)

Event Time Altitude Azimuth Distance (km) Brightness Sun altitude
Rises 01:36:29 0° 215° (SW) 4,797 - -15.4°
Reaches altitude 10° 01:39:55 10° 208° (SSW) 3,789 - -15.2°
Exits shadow 01:42:36 20° 198° (SSW) 3,079 9.9 -15.1°
Maximum altitude 01:48:21 37° 146° (SE) 2,254 9.6 -14.9°
Drops below altitude 10° 01:56:34 10° 84° (E) 3,699 11.3 -14.5°
Sets 01:59:51 0° 76° (ENE) 4,672 12.0 -14.3°
